SCP
0 0 1 1 1 2 2 1 1 1 1 1 1 1 0 1 1 1 1 1 0 0 0 0 0 1 0 0 0 0 0 0 0 0 0 0 0 0 0 0 0 0 0
0 0 0 0 0 1 1 1 1 1 1 1 1 1 1 1 1 1 1 1 1 0 0 0 1 1 1 1 0 0 0 0 0 0 0 0 0 0 0 0 0 0 0
0 0 0 0 0 0 0 0 1 1 2 1 1 1 1 0 1 1 1 1 1 0 0 0 0 1 1 1 1 0 0 0 0 0 0 0 0 0 0 0 0 0 0
0 0 0 0 0 0 0 0 0 0 0 0 0 0 0 0 0 1 1 0 1 0 1 0 1 1 1 1 1 1 0 0 0 0 0 0 0 0 0 0 0 0 0
0 0 0 0 0 0 0 0 0 1 0 0 0 0 0 0 0 0 1 1 1 1 1 1 1 1 1 1 1 1 1 0 0 0 0 0 0 0 0 0 0 0 0
0 0 0 0 0 0 0 0 0 0 0 0 0 0 0 0 0 1 1 1 1 1 1 1 1 1 1 1 1 1 1 0 0 0 0 0 0 0 0 0 0 0 0
0 0 0 0 0 0 0 0 0 0 0 0 0 0 0 0 1 1 1 1 1 1 1 1 1 1 1 1 0 0 0 1 0 0 0 0 0 0 0 0 0 0 0
0 0 0 0 0 0 0 0 0 0 0 0 1 0 0 0 0 1 1 1 1 1 1 1 1 1 1 1 1 1 0 0 0 0 0 0 0 0 0 0 0 0 0
0 0 0 0 0 0 0 0 0 0 0 0 0 1 0 0 0 1 0 1 1 1 1 0 1 1 1 1 0 0 0 0 0 0 0 0 0 0 0 0 0 0 0
0 0 0 0 0 0 0 0 0 0 0 0 0 0 1 1 1 0 0 1 1 1 0 0 0 0 0 0 0 0 0 0 0 0 0 0 0 0 0 0 0 0 0
0 0 0 0 0 0 0 0 0 0 0 0 0 0 0 0 0 0 0 0 0 0 0 0 0 0 0 0 0 0 0 0 0 0 0 0 0 0 0 0 0 0 0
0 0 0 0 0 0 0 0 0 0 0 0 0 0 0 0 0 0 0 0 0 0 0 0 0 0 0 0 0 0 0 0 0 0 0 0 0 0 0 0 0 0 0
0 1 0 0 0 0 0 0 0 0 0 0 0 0 0 0 0 0 0 0 0 0 0 0 0 0 0 0 0 0 0 0 0 0 0 0 0 0 0 0 0 0 0
0 0 0 1 1 0 0 0 0 0 0 0 0 0 0 0 0 0 0 0 0 0 0 0 0 0 0 0 0 0 0 0 0 0 0 0 0 0 0 0 0 0 0
0 0 0 1 1 1 1 0 0 0 0 0 0 0 0 0 0 0 0 0 0 0 0 0 0 0 0 0 0 0 0 0 0 0 0 0 0 0 0 0 0 0 0
0 0 0 0 1 1 1 0 0 0 0 0 0 0 0 0 0 0 0 0 0 1 0 0 0 0 0 0 0 0 0 0 0 0 0 0 0 0 0 0 0 0 0
0 0 0 0 1 1 0 0 0 0 0 0 0 0 0 0 0 0 0 0 0 0 1 0 0 0 0 0 0 0 0 0 0 0 0 0 0 0 0 0 0 0 0
0 0 0 0 0 0 0 0 0 0 0 0 0 0 0 0 0 -0 0 0 0 0 1 0 0 0 0 0 0 0 0 0 0 0 0 0 0 0 0 0 0 0 0
0 0 0 0 0 0 0 0 0 0 0 0 0 0 0 0 0 0 0 0 0 1 0 0 0 0 0 0 0 0 0 0 0 0 0 0 0 0 0 0 0 0 0
0 0 0 0 0 0 0 0 0 0 0 0 0 0 0 0 0 0 0 0 1 1 0 0 0 0 0 0 0 0 0 0 0 0 0 0 0 0 0 0 0 0 0
0 0 0 0 0 0 0 0 0 0 0 0 0 0 0 0 0 0 0 0 1 0 0 0 0 0 0 0 0 0 0 0 0 0 0 0 0 0 0 0 0 -0 0
0 0 0 0 0 0 0 0 0 0 0 0 0 0 0 0 0 0 0 0 0 0 0 0 0 0 0 0 0 0 0 0 0 0 0 0 0 0 0 0 -0 -0 0
0 0 0 0 0 -0 0 0 0 0 0 0 0 0 0 0 0 0 0 0 0 0 0 0 0 0 0 0 0 0 0 0 0 0 0 0 0 0 0 0 -0 -0 -0
0 0 0 0 -0 -0 -0 0 0 0 -0 0 0 0 0 0 0 0 0 0 0 0 0 0 0 0 0 0 0 0 0 0 -0 0 0 -0 0 0 0 0 -0 -0 -0
0 0 -0 -0 -0 -0 -0 -0 -0 0 -0 0 0 0 0 0 0 0 0 0 0 0 0 0 0 0 0 -0 -0 0 -0 0 -0 -0 -0 0 -0 -0 0 -0 -0 0 -0
-0 -0 -0 -0 -0 -0 -0 -0 0 0 0 0 0 0 0 0 0 0 0 0 0 0 0 0 0 0 0 -0 -0 0 -0 -0 -0 -0 0 -0 0 0 0 -0 0 0 0
Wind_Speed_500mb
24 25 22 21 23 24 27 29 29 29 26 27 27 29 30 32 29 29 30 41 40 42 42 42 40 42 45 48 50 48 43 37 38 32 27 27 27 30 33 35 38 37 33
17 21 20 17 18 20 23 27 32 35 35 35 35 35 34 32 32 33 32 32 40 35 39 48 48 44 46 47 57 55 53 47 42 35 32 31 29 31 36 37 34 34 31
14 13 12 14 18 24 28 27 29 33 36 39 41 39 38 38 39 35 35 35 35 40 38 37 41 44 45 44 54 60 60 60 46 38 36 35 33 29 34 37 35 32 29
14 13 11 15 20 17 20 23 25 34 39 44 46 45 43 41 40 41 36 35 38 38 40 42 42 44 49 48 49 56 67 64 59 52 45 42 32 29 33 34 37 33 30
16 17 18 20 19 20 17 19 21 22 27 35 42 45 46 45 43 41 38 35 34 38 38 41 43 48 51 52 51 53 63 72 75 64 57 31 32 29 30 32 34 34 25
16 19 21 25 24 22 21 27 29 24 25 27 34 39 42 41 42 42 34 32 29 32 34 35 42 44 45 54 56 54 60 67 81 80 55 27 28 32 29 36 32 27 25
19 25 17 28 28 26 30 30 29 25 21 21 29 32 38 41 44 41 35 38 34 32 39 43 41 36 43 48 49 52 58 65 61 61 42 32 31 33 27 29 26 26 23
27 27 30 27 31 24 35 35 34 24 22 17 19 28 37 35 34 29 25 27 24 23 25 30 32 35 39 40 45 45 57 63 46 37 30 33 34 27 28 29 23 23 23
37 41 41 38 39 39 21 37 27 28 20 22 18 16 23 33 31 17 22 17 24 24 37 34 35 40 38 39 36 35 45 54 39 19 32 39 31 30 30 31 26 23 18
44 45 49 46 45 33 35 30 33 28 22 22 22 16 22 27 24 36 29 22 23 31 35 39 41 41 37 29 27 30 37 44 29 36 35 39 30 35 40 33 25 21 17
48 48 45 47 51 45 39 37 31 29 20 19 22 23 24 26 27 32 42 40 16 36 35 34 34 32 29 22 26 34 40 39 37 39 37 26 30 31 23 21 27 23 21
47 43 44 47 47 43 41 32 31 26 25 25 19 21 23 27 29 30 32 37 40 42 42 42 38 31 24 25 32 38 53 43 43 26 19 26 28 29 19 22 27 27 22
46 44 44 47 48 48 45 46 40 34 28 24 29 22 24 25 30 34 39 40 40 36 48 43 34 28 23 26 32 42 50 46 24 20 23 23 22 15 19 22 25 27 28
54 50 47 52 52 50 45 47 47 35 34 33 33 33 28 29 30 34 39 39 40 37 39 36 34 28 27 27 35 42 38 28 20 21 12 7 10 14 19 22 23 26 27
59 53 49 52 54 54 49 43 42 34 40 45 40 38 32 32 33 35 40 38 41 43 30 32 35 33 29 34 37 29 22 18 10 3 6 11 12 15 18 21 22 23 23
60 58 56 58 57 58 50 43 41 37 41 42 40 42 47 40 39 37 41 37 39 47 45 36 37 39 39 40 33 25 19 14 9 6 7 9 15 17 20 22 22 23 23
63 65 64 62 62 55 49 45 41 42 42 42 46 49 54 51 44 39 40 38 40 44 46 40 36 38 45 44 36 31 24 16 11 11 9 15 17 19 22 24 25 26 26
60 61 55 63 73 65 60 52 46 47 46 46 44 46 53 51 47 42 39 39 40 42 44 49 41 43 47 49 41 37 31 21 16 13 15 19 22 24 26 29 30 27 23
53 57 53 60 60 64 63 54 51 51 52 52 50 49 50 48 49 42 40 40 37 44 45 55 44 52 55 58 51 43 34 27 22 17 18 23 26 27 34 34 35 33 29
55 55 55 60 63 56 55 59 59 56 57 56 53 52 51 49 47 43 41 36 35 38 50 50 44 58 62 58 52 50 43 30 26 24 17 15 22 26 35 41 41 40 34
51 56 55 54 59 63 60 57 57 59 58 55 53 52 50 50 51 46 41 37 37 47 49 53 49 67 70 69 64 51 42 35 30 26 8 8 13 25 34 41 47 44 38
54 55 56 53 53 54 54 56 55 52 47 48 49 48 49 52 48 51 53 51 35 52 51 59 56 70 71 70 60 52 47 41 28 26 11 10 11 19 31 41 48 49 47
50 54 55 52 50 51 55 56 55 51 49 50 50 49 50 40 38 43 46 48 58 50 47 56 63 68 74 71 70 58 44 31 24 26 18 16 9 14 28 35 43 51 50
51 49 49 49 47 43 47 51 57 54 54 54 53 53 49 43 43 39 34 40 47 54 55 49 51 60 70 72 69 59 42 32 28 22 20 18 12 16 23 27 36 43 49
45 42 41 42 45 47 47 51 53 52 50 51 48 46 48 45 38 34 37 40 42 46 53 51 48 55 61 57 65 60 42 32 29 23 12 18 18 20 16 20 25 34 43
38 34 36 39 41 42 40 43 47 41 45 43 44 45 41 42 41 36 42 42 46 47 54 56 40 54 62 57 62 38 35 29 27 25 18 11 10 8 6 27 21 26 35
Wind_Direction_500mb
275 280 278 278 260 260 264 267 267 267 266 267 267 269 268 270 264 266 270 277 278 262 261 263 269 271 268 258 258 267 272 263 272 273 279 284 300 312 322 322 326 325 325
294 286 290 290 287 282 280 270 265 264 267 268 267 266 266 266 270 269 270 274 285 275 269 270 260 269 270 259 250 263 268 270 267 270 275 283 289 302 313 316 317 317 313
313 299 299 300 296 290 292 286 281 277 273 268 268 267 268 270 272 268 269 273 276 281 276 277 260 269 274 267 258 259 265 272 271 275 269 271 280 293 303 305 311 309 312
318 310 313 296 292 307 303 302 289 276 272 270 270 267 267 268 268 269 272 269 268 269 279 273 267 267 270 274 265 261 261 268 266 263 258 260 266 285 294 305 302 309 311
331 329 317 310 302 293 306 305 305 294 281 272 272 271 269 267 266 269 265 266 270 267 265 277 275 271 263 266 268 262 260 261 257 245 245 256 265 273 285 298 299 308 313
340 346 337 335 324 310 302 294 293 292 300 290 277 273 268 266 266 267 263 262 268 266 269 271 278 274 272 264 264 262 265 264 232 240 253 256 280 282 290 301 303 312 303
309 316 320 319 319 317 315 306 300 301 297 290 289 285 279 267 262 265 269 274 268 272 270 277 279 274 272 274 272 269 267 264 191 223 236 278 286 283 288 290 299 302 303
299 302 302 303 304 308 309 309 309 303 295 291 291 284 284 280 258 264 268 270 263 265 276 288 292 283 275 275 274 272 261 260 255 245 277 299 292 278 282 301 312 307 307
295 294 295 293 295 297 294 306 306 310 296 286 283 281 285 282 306 269 281 257 272 282 279 286 289 291 287 279 279 281 256 247 235 278 289 301 285 280 296 308 303 306 311
283 281 282 278 282 278 280 283 291 300 304 293 282 270 265 272 288 287 283 272 282 277 273 286 290 288 288 287 282 257 225 235 231 264 280 291 279 302 308 299 295 294 294
284 274 262 257 265 268 266 265 275 283 291 291 292 283 275 280 284 277 279 280 273 301 292 289 291 291 293 282 258 241 230 213 243 264 274 285 299 296 300 289 291 299 303
280 275 269 256 249 242 246 253 259 276 277 282 290 295 283 276 271 274 282 280 285 285 286 293 287 291 290 268 265 256 223 232 250 265 299 302 300 299 301 297 297 300 287
281 278 272 259 250 247 239 250 258 261 276 278 289 290 292 285 275 271 274 278 279 276 285 289 282 279 264 255 245 241 232 239 264 293 300 309 306 304 303 306 301 293 287
280 279 271 266 252 243 239 241 249 256 254 275 285 294 295 294 286 273 269 273 278 275 281 277 275 259 251 249 240 238 239 255 266 291 310 326 354 340 324 315 311 300 297
275 274 272 268 255 241 237 237 243 251 256 264 275 293 293 296 291 280 266 256 265 269 270 274 251 238 235 230 236 233 230 249 268 240 24 27 360 332 330 330 319 314 312
276 274 268 265 255 242 232 236 243 252 257 261 267 277 288 293 293 280 267 262 256 261 265 263 254 241 223 223 222 202 196 182 144 88 65 21 7 355 350 340 334 331 324
277 274 268 258 254 242 233 239 240 244 251 261 268 275 282 290 288 276 264 257 256 257 250 248 248 228 213 215 203 185 179 164 137 110 60 33 15 6 357 8 7 0 353
277 274 266 256 248 246 244 244 247 249 253 256 262 267 275 281 278 271 261 251 248 253 249 244 235 215 213 208 203 184 174 157 131 98 56 41 35 31 32 30 24 15 12
281 269 268 258 252 245 244 248 251 252 254 255 257 259 264 268 267 260 250 245 246 251 248 239 229 209 205 199 187 178 169 149 124 101 75 56 56 50 45 39 36 29 14
276 272 268 260 250 248 256 255 255 255 254 255 257 260 261 259 254 248 244 247 237 240 245 232 217 204 199 188 183 172 161 148 127 105 91 71 68 56 46 41 38 34 25
275 272 267 263 260 261 256 255 252 251 250 250 253 257 256 251 241 238 229 232 236 234 242 218 208 196 191 189 190 175 164 147 132 110 118 76 62 55 45 38 35 29 31
274 270 268 262 261 256 252 254 251 244 244 247 252 256 254 250 244 236 229 223 209 237 238 223 212 204 200 195 191 175 165 149 137 134 152 118 66 52 44 40 35 35 33
279 271 269 267 259 256 251 252 250 242 246 251 253 253 251 247 247 236 234 231 221 234 246 237 225 208 197 199 197 178 162 127 137 151 140 107 84 68 49 43 36 34 31
284 279 268 267 266 260 257 249 248 252 254 253 250 247 242 240 230 230 236 224 225 224 234 236 235 217 206 196 192 174 131 123 143 142 131 113 97 77 50 28 37 36 34
288 279 270 262 262 263 257 259 258 256 251 249 244 239 235 236 224 221 220 222 221 209 220 221 221 215 199 197 180 149 136 149 146 149 142 127 104 86 65 53 40 39 39
291 289 277 272 267 264 259 252 247 241 244 243 241 243 236 232 221 220 207 210 188 191 195 197 201 193 194 178 152 133 145 149 147 144 156 128 148 185 40 38 57 48 44
Wind_Speed_850mb
24 25 22 21 23 24 27 29 29 29 26 27 27 29 30 32 29 29 30 41 40 42 42 42 40 42 45 48 50 48 43 37 38 32 27 27 27 30 33 35 38 37 33
17 21 20 17 18 20 23 27 32 35 35 35 35 35 34 32 32 33 32 32 40 35 39 48 48 44 46 47 57 55 53 47 42 35 32 31 29 31 36 37 34 34 31
14 13 12 14 18 24 28 27 29 33 36 39 41 39 38 38 39 35 35 35 35 40 38 37 41 44 45 44 54 60 60 60 46 38 36 35 33 29 34 37 35 32 29
14 13 11 15 20 17 20 23 25 34 39 44 46 45 43 41 40 41 36 35 38 38 40 42 42 44 49 48 49 56 67 64 59 52 45 42 32 29 33 34 37 33 30
16 17 18 20 19 20 17 19 21 22 27 35 42 45 46 45 43 41 38 35 34 38 38 41 43 48 51 52 51 53 63 72 75 64 57 31 32 29 30 32 34 34 25
16 19 21 25 24 22 21 27 29 24 25 27 34 39 42 41 42 42 34 32 29 32 34 35 42 44 45 54 56 54 60 67 81 80 55 27 28 32 29 36 32 27 25
19 25 17 28 28 26 30 30 29 25 21 21 29 32 38 41 44 41 35 38 34 32 39 43 41 36 43 48 49 52 58 65 61 61 42 32 31 33 27 29 26 26 23
27 27 30 27 31 24 35 35 34 24 22 17 19 28 37 35 34 29 25 27 24 23 25 30 32 35 39 40 45 45 57 63 46 37 30 33 34 27 28 29 23 23 23
37 41 41 38 39 39 21 37 27 28 20 22 18 16 23 33 31 17 22 17 24 24 37 34 35 40 38 39 36 35 45 54 39 19 32 39 31 30 30 31 26 23 18
44 45 49 46 45 33 35 30 33 28 22 22 22 16 22 27 24 36 29 22 23 31 35 39 41 41 37 29 27 30 37 44 29 36 35 39 30 35 40 33 25 21 17
48 48 45 47 51 45 39 37 31 29 20 19 22 23 24 26 27 32 42 40 16 36 35 34 34 32 29 22 26 34 40 39 37 39 37 26 30 31 23 21 27 23 21
47 43 44 47 47 43 41 32 31 26 25 25 19 21 23 27 29 30 32 37 40 42 42 42 38 31 24 25 32 38 53 43 43 26 19 26 28 29 19 22 27 27 22
46 44 44 47 48 48 45 46 40 34 28 24 29 22 24 25 30 34 39 40 40 36 48 43 34 28 23 26 32 42 50 46 24 20 23 23 22 15 19 22 25 27 28
54 50 47 52 52 50 45 47 47 35 34 33 33 33 28 29 30 34 39 39 40 37 39 36 34 28 27 27 35 42 38 28 20 21 12 7 10 14 19 22 23 26 27
59 53 49 52 54 54 49 43 42 34 40 45 40 38 32 32 33 35 40 38 41 43 30 32 35 33 29 34 37 29 22 18 10 3 6 11 12 15 18 21 22 23 23
60 58 56 58 57 58 50 43 41 37 41 42 40 42 47 40 39 37 41 37 39 47 45 36 37 39 39 40 33 25 19 14 9 6 7 9 15 17 20 22 22 23 23
63 65 64 62 62 55 49 45 41 42 42 42 46 49 54 51 44 39 40 38 40 44 46 40 36 38 45 44 36 31 24 16 11 11 9 15 17 19 22 24 25 26 26
60 61 55 63 73 65 60 52 46 47 46 46 44 46 53 51 47 42 39 39 40 42 44 49 41 43 47 49 41 37 31 21 16 13 15 19 22 24 26 29 30 27 23
53 57 53 60 60 64 63 54 51 51 52 52 50 49 50 48 49 42 40 40 37 44 45 55 44 52 55 58 51 43 34 27 22 17 18 23 26 27 34 34 35 33 29
55 55 55 60 63 56 55 59 59 56 57 56 53 52 51 49 47 43 41 36 35 38 50 50 44 58 62 58 52 50 43 30 26 24 17 15 22 26 35 41 41 40 34
51 56 55 54 59 63 60 57 57 59 58 55 53 52 50 50 51 46 41 37 37 47 49 53 49 67 70 69 64 51 42 35 30 26 8 8 13 25 34 41 47 44 38
54 55 56 53 53 54 54 56 55 52 47 48 49 48 49 52 48 51 53 51 35 52 51 59 56 70 71 70 60 52 47 41 28 26 11 10 11 19 31 41 48 49 47
50 54 55 52 50 51 55 56 55 51 49 50 50 49 50 40 38 43 46 48 58 50 47 56 63 68 74 71 70 58 44 31 24 26 18 16 9 14 28 35 43 51 50
51 49 49 49 47 43 47 51 57 54 54 54 53 53 49 43 43 39 34 40 47 54 55 49 51 60 70 72 69 59 42 32 28 22 20 18 12 16 23 27 36 43 49
45 42 41 42 45 47 47 51 53 52 50 51 48 46 48 45 38 34 37 40 42 46 53 51 48 55 61 57 65 60 42 32 29 23 12 18 18 20 16 20 25 34 43
38 34 36 39 41 42 40 43 47 41 45 43 44 45 41 42 41 36 42 42 46 47 54 56 40 54 62 57 62 38 35 29 27 25 18 11 10 8 6 27 21 26 35
Wind_Direction_850mb
275 280 278 278 260 260 264 267 267 267 266 267 267 269 268 270 264 266 270 277 278 262 261 263 269 271 268 258 258 267 272 263 272 273 279 284 300 312 322 322 326 325 325
294 286 290 290 287 282 280 270 265 264 267 268 267 266 266 266 270 269 270 274 285 275 269 270 260 269 270 259 250 263 268 270 267 270 275 283 289 302 313 316 317 317 313
313 299 299 300 296 290 292 286 281 277 273 268 268 267 268 270 272 268 269 273 276 281 276 277 260 269 274 267 258 259 265 272 271 275 269 271 280 293 303 305 311 309 312
318 310 313 296 292 307 303 302 289 276 272 270 270 267 267 268 268 269 272 269 268 269 279 273 267 267 270 274 265 261 261 268 266 263 258 260 266 285 294 305 302 309 311
331 329 317 310 302 293 306 305 305 294 281 272 272 271 269 267 266 269 265 266 270 267 265 277 275 271 263 266 268 262 260 261 257 245 245 256 265 273 285 298 299 308 313
340 346 337 335 324 310 302 294 293 292 300 290 277 273 268 266 266 267 263 262 268 266 269 271 278 274 272 264 264 262 265 264 232 240 253 256 280 282 290 301 303 312 303
309 316 320 319 319 317 315 306 300 301 297 290 289 285 279 267 262 265 269 274 268 272 270 277 279 274 272 274 272 269 267 264 191 223 236 278 286 283 288 290 299 302 303
299 302 302 303 304 308 309 309 309 303 295 291 291 284 284 280 258 264 268 270 263 265 276 288 292 283 275 275 274 272 261 260 255 245 277 299 292 278 282 301 312 307 307
295 294 295 293 295 297 294 306 306 310 296 286 283 281 285 282 306 269 281 257 272 282 279 286 289 291 287 279 279 281 256 247 235 278 289 301 285 280 296 308 303 306 311
283 281 282 278 282 278 280 283 291 300 304 293 282 270 265 272 288 287 283 272 282 277 273 286 290 288 288 287 282 257 225 235 231 264 280 291 279 302 308 299 295 294 294
284 274 262 257 265 268 266 265 275 283 291 291 292 283 275 280 284 277 279 280 273 301 292 289 291 291 293 282 258 241 230 213 243 264 274 285 299 296 300 289 291 299 303
280 275 269 256 249 242 246 253 259 276 277 282 290 295 283 276 271 274 282 280 285 285 286 293 287 291 290 268 265 256 223 232 250 265 299 302 300 299 301 297 297 300 287
281 278 272 259 250 247 239 250 258 261 276 278 289 290 292 285 275 271 274 278 279 276 285 289 282 279 264 255 245 241 232 239 264 293 300 309 306 304 303 306 301 293 287
280 279 271 266 252 243 239 241 249 256 254 275 285 294 295 294 286 273 269 273 278 275 281 277 275 259 251 249 240 238 239 255 266 291 310 326 354 340 324 315 311 300 297
275 274 272 268 255 241 237 237 243 251 256 264 275 293 293 296 291 280 266 256 265 269 270 274 251 238 235 230 236 233 230 249 268 240 24 27 360 332 330 330 319 314 312
276 274 268 265 255 242 232 236 243 252 257 261 267 277 288 293 293 280 267 262 256 261 265 263 254 241 223 223 222 202 196 182 144 88 65 21 7 355 350 340 334 331 324
277 274 268 258 254 242 233 239 240 244 251 261 268 275 282 290 288 276 264 257 256 257 250 248 248 228 213 215 203 185 179 164 137 110 60 33 15 6 357 8 7 0 353
277 274 266 256 248 246 244 244 247 249 253 256 262 267 275 281 278 271 261 251 248 253 249 244 235 215 213 208 203 184 174 157 131 98 56 41 35 31 32 30 24 15 12
281 269 268 258 252 245 244 248 251 252 254 255 257 259 264 268 267 260 250 245 246 251 248 239 229 209 205 199 187 178 169 149 124 101 75 56 56 50 45 39 36 29 14
276 272 268 260 250 248 256 255 255 255 254 255 257 260 261 259 254 248 244 247 237 240 245 232 217 204 199 188 183 172 161 148 127 105 91 71 68 56 46 41 38 34 25
275 272 267 263 260 261 256 255 252 251 250 250 253 257 256 251 241 238 229 232 236 234 242 218 208 196 191 189 190 175 164 147 132 110 118 76 62 55 45 38 35 29 31
274 270 268 262 261 256 252 254 251 244 244 247 252 256 254 250 244 236 229 223 209 237 238 223 212 204 200 195 191 175 165 149 137 134 152 118 66 52 44 40 35 35 33
279 271 269 267 259 256 251 252 250 242 246 251 253 253 251 247 247 236 234 231 221 234 246 237 225 208 197 199 197 178 162 127 137 151 140 107 84 68 49 43 36 34 31
284 279 268 267 266 260 257 249 248 252 254 253 250 247 242 240 230 230 236 224 225 224 234 236 235 217 206 196 192 174 131 123 143 142 131 113 97 77 50 28 37 36 34
288 279 270 262 262 263 257 259 258 256 251 249 244 239 235 236 224 221 220 222 221 209 220 221 221 215 199 197 180 149 136 149 146 149 142 127 104 86 65 53 40 39 39
291 289 277 272 267 264 259 252 247 241 244 243 241 243 236 232 221 220 207 210 188 191 195 197 201 193 194 178 152 133 145 149 147 144 156 128 148 185 40 38 57 48 44